DAUEDAAT

Guest
Details From DAUE - EL GOLEA
To DAAT - TAMANRASSET
Flight Number -
Tags generated
Created
Modified
Stats Distance 487 nm / 902 km
Max Altitude 23,500 ft / 7,163 m
Waypoints 5
Social Downloads 0
Likes 0
Share VATSIM

Download

Looking for another format? Having issues loading an existing format? Contact us
Advertisement - Login to hide

Notes

Basic altitude profile: - Ascent Rate: 2500ft/min - Ascent Speed: 250kts - Cruise Altitude: 35000ft - Cruise Speed: 420kts - Descent Rate: 1500ft/min - Descent Speed: 250kts Options: - Use NATs: yes - Use PACOTS: yes - Use low airways: yes - Use high airways: yes

Route

DAUE MNA A604 TMS DAAT

ID Type Via Altitude Latitude Longitude Leg Dist Tot Dist Heading (true) Name
O DAUE APT - 0 ft / 0 m 30.57729˚ 2.86424˚ - 0 nm - EL GOLEA
MNA VOR - 400 ft / 122 m 30.55861˚ 2.86167˚ 1 nm 1 nm 187° / 187° EL GOLEA VOR-DME
SIHAR FIX A604 (AWY-LO) 23,500 ft / 7,163 m 28.50000˚ 3.57472˚ 129 nm 130 nm 163° / 163° -
TMS VOR A604 (AWY-LO) 9,500 ft / 2,896 m 22.84278˚ 5.46472˚ 354 nm 485 nm 163° / 164° TAMANRASSET VOR-DME
O DAAT APT - 0 ft / 0 m 22.81038˚ 5.44440˚ 2 nm 487 nm 210° / 210° TAMANRASSET

Altitude Profile

Advertisement - Login to hide

Weather


0- 5 10 15 20 25 30 35+ Temperature / ° C

Clouds and Precipitation
Forecast for 2018-05-23 12:00 UTC. Updated 2 hours ago

Ground ~20,000 ft ~40,000 ft Winds

DAUE

Details ICAO DAUE (ELG)
Name EL GOLEA
Region Algeria
Timezone Africa/Algiers (UTC+1.0)
Stats Elevation 1,306 ft / 398 m (AMSL)
Location 30.577292° 2.864236°
Runways 2
Magnetic Variation 0.775° E

METAR

DAUE 231300Z 10016KT 7000 NSC 34/13 Q1015

Decode

TAF

Not found

Departure Runways

ID Width Length Bearing (true) Bearing (mag) Surface Threshold Offset Overrun Length
10 148 ft / 45 m 5,887 ft / 1,794 m 101.92° 101.14° Asphalt 0 ft / 0 m 0 ft / 0 m
18 148 ft / 45 m 9,833 ft / 2,997 m 179.49° 178.71° Asphalt 0 ft / 0 m 350 ft / 107 m
28 148 ft / 45 m 5,887 ft / 1,794 m 281.93° 281.15° Asphalt 0 ft / 0 m 0 ft / 0 m
36 148 ft / 45 m 9,833 ft / 2,997 m 359.49° 358.71° Asphalt 0 ft / 0 m 0 ft / 0 m

DAAT

Details ICAO DAAT (TMR)
Name TAMANRASSET
Region Algeria
Timezone Africa/Algiers (UTC+1.0)
Stats Elevation 4,518 ft / 1,377 m (AMSL)
Location 22.810384° 5.444403°
Runways 2
Magnetic Variation 0.638° E

METAR

DAAT 231300Z 14015KT 090V200 5000 FEW046 SCT100 37/M01 Q1021

Decode

TAF

TAF DAAT 231100Z 2312/2412 12014KT 4000 HZ FEW046 SCT100 BECMG 2313/2315 20015KT PROB40 TEMPO 2313/2318 16015G30KT SCT040TCU FEW053CB BECMG 2320/2323 07010KT

Decode

Destination Runways

ID Width Length Bearing (true) Bearing (mag) Surface Threshold Offset Overrun Length
02 148 ft / 45 m 11,884 ft / 3,622 m 22.21° 21.57° Asphalt 0 ft / 0 m 0 ft / 0 m
08 148 ft / 45 m 10,169 ft / 3,099 m 81.74° 81.10° Asphalt 0 ft / 0 m 0 ft / 0 m
20 148 ft / 45 m 11,884 ft / 3,622 m 202.22° 201.58° Asphalt 0 ft / 0 m 0 ft / 0 m
26 148 ft / 45 m 10,169 ft / 3,099 m 261.75° 261.11° Asphalt 0 ft / 0 m 0 ft / 0 m

Popular Alternatives